STARLINK-36395, 67554

Orbit data source: Space-Track

STARLINK-36395, 67554 is a payload satellite owned by SpaceX/Seattle (US) in SSO that was launched on Thu, 22 Jan 2026 UTC via an FALCON 9 launch vehicle from the Air Force Western Test Range (AFWTR). Payload-class satellites include a variety of spacecraft equipped with specific instruments for various scientific and technological missions. These include communications satellites like Starlink; space stations such as the ISS; scientific satellites like the Hubble; Earth observation satellites from companies like Planet Labs, Umbra, and HawkEye 360; GPS; miniature CubeSats for education and research; and military/defense satellites.

Loading next visibility...
Identifier
67554, 2026-014Y
Orbit
SSO
Country
Flag of USUS
Related business
Manufacturer
SpaceX/Seattle
Mission
Operational Commercial Communications
Bus & Motor
STARLINK V2MO, Unknown motor
Mass
575 kg wet, ~530 kg dry
Launch date (UTC)
2026-01-22 (5 months ago)
Launch vehicle
FALCON 9
Launch site
Air Force Western Test Range (AFWTR)
Object type
Payload
Rocket body
Debris
Shape & HBR
Box + 2 Pan, 17.7 m
Radar Cross Section
36.964 m², Large (>1 m²)

Expand to show TLE details & history
Last TLE update: 10 hours ago

TLE from 10 hours ago
0 STARLINK-36395
1 67554U 26014Y   26171.41668980 -.00004254  00000-0 -12951-3 0  9997
2 67554  97.2849  60.9974 0002034 102.2650  16.5024 15.33447751  5865
Epoch: 2026-06-20T10:00Z
TLE epoch observation values (Epoch: 2026-06-20T10:00:01.998Z)
Latitude
60.49494°
Longitude
-164.66014°
Altitude
474.551 km
Speed
7.635 km/s
True Right ascension
16h 55m 55s
True Declination
60° 20' 28"
Sunlit
Object was in daylight at epoch
Visualization orbit readout
Latitude
Unknown
Longitude
Unknown
Altitude
Unknown
Speed
Unknown
Apparent Right ascension
Unknown
Apparent Declination
Unknown
Sunlit
N/A
Visualization observer readout
Local Sidereal Time
07:24:26
Azimuth
Unknown
Elevation
Unknown
Doppler factor
Unknown
Orbital elements
Apogee altitude
463.869 km
Perigee altitude
461.086 km
Semi-major axis
6,840.615 km
Eccentricity
0.0002
Inclination
97.2849°
RAAN
60.9974°
Arg. of periapsis
102.265°
True anomaly
16.50902°
Mean anomaly
16.5024°
Eccentric anomaly
16.50571°
Mean motion
3.83619 °/min
Orbital period
93.84 mins
BSTAR
-0.00012951
Loading maneuver chart data...
Computing Atmospheric mass density...
Loading historical data...
Loading historical data...
Loading historical data...
Loading historical data...
Loading historical data...
Loading historical data...
Loading historical data...

Documentation

Showing up to 5 results
|